Weather History for KSAW - December, 2013

Change the Weather History Date:

Monday, December 2, 2013

  Actual Average (KESC) Record (KESC)
Temperature  
Mean Temperature 26 °F -  
Max Temperature 32 °F 32 °F 53 °F (1982)
Min Temperature 21 °F 20 °F -3 °F (1976)
Degree Days  
Heating Degree Days 38    
Moisture  
Dew Point 24 °F    
Average Humidity 89    
Maximum Humidity 100    
Minimum Humidity 75    
Precipitation  
Precipitation 0.00 in - - ()
Sea Level Pressure  
Sea Level Pressure 29.90 in    
Wind  
Wind Speed 3 mph (SSE)    
Max Wind Speed 9 mph    
Max Gust Speed -    
Visibility 8 miles    
Events Fog , Snow    
Averages and records for this station are not official NWS values.
T = Trace of Precipitation, MM = Missing Value Source: NWS Daily Summary

Daily Weather History Graph

Daily Weather History Graph

Search for Another Location

Airport or City:

Trip Planner

Search our weather history database for the weather conditions in past years. The results will help you decide how hot, cold, wet, or windy it might be!

Date:

Astronomy

Dec. 02, 2013 Rise Set
Actual Time 8:13 AM EST 5:04 PM EST
Civil Twilight 7:39 AM EST 5:38 PM EST
Nautical Twilight 7:01 AM EST 6:16 PM EST
Astronomical Twilight 6:25 AM EST 6:52 PM EST
Moon 7:36 AM EST (12/2) 5:08 PM EST (12/2)
Length of Visible Light 9h 59m
Length of Day
8h 50m
Waning Crescent, 0% of the Moon is Illuminated
Dec 2
Waning Crescent
Dec 2
New
Dec 9
First Quarter
Dec 17
Full
Dec 25
Last Quarter

Hourly Weather History & Observations

Time (EST) Temp. Windchill Dew Point Humidity Pressure Visibility Wind Dir Wind Speed Gust Speed Precip Events Conditions
12:17 AM 27.9 °F 22.6 °F 26.2 °F 94% 29.96 in 10.0 mi SSW 4.6 mph - N/A   Overcast
12:36 AM 28.2 °F 23.1 °F 26.4 °F 93% 29.95 in 10.0 mi South 4.6 mph - N/A   Overcast
12:56 AM 28.0 °F 22.8 °F 26.2 °F 93% 29.95 in 10.0 mi South 4.6 mph - N/A   Overcast
1:16 AM 27.9 °F 22.6 °F 26.1 °F 93% 29.94 in 10.0 mi South 4.6 mph - N/A   Overcast
1:36 AM 28.0 °F 22.8 °F 26.1 °F 92% 29.94 in 10.0 mi South 4.6 mph - N/A   Overcast
1:57 AM 28.0 °F 21.7 °F 26.1 °F 92% 29.93 in 10.0 mi South 5.8 mph - N/A   Overcast
2:16 AM 27.7 °F 23.8 °F 25.5 °F 92% 29.93 in 10.0 mi SSE 3.5 mph - N/A   Overcast
2:36 AM 26.4 °F - 24.8 °F 94% 29.94 in 10.0 mi Calm Calm - N/A   Mostly Cloudy
2:56 AM 26.6 °F - 25.0 °F 94% 29.93 in 10.0 mi Calm Calm - N/A   Mostly Cloudy
3:16 AM 25.7 °F - 24.8 °F 96% 29.93 in 7.0 mi Calm Calm - N/A   Overcast
3:37 AM 25.5 °F - 24.6 °F 96% 29.93 in 4.0 mi Calm Calm - N/A   Overcast
3:56 AM 25.5 °F - 24.6 °F 96% 29.93 in 7.0 mi Calm Calm - N/A   Overcast
4:17 AM 26.1 °F 21.9 °F 25.2 °F 96% 29.92 in 7.0 mi SSE 3.5 mph - N/A   Overcast
4:36 AM 24.8 °F 19.1 °F 23.9 °F 96% 29.92 in 0.5 mi SE 4.6 mph - N/A Fog Light Freezing Fog
4:57 AM 23.9 °F 19.5 °F 23.0 °F 96% 29.92 in 0.2 mi SSE 3.5 mph - N/A Snow Light Snow
5:16 AM 23.5 °F - 22.6 °F 96% 29.92 in 0.2 mi Calm Calm - N/A Snow Light Snow
5:36 AM 22.1 °F 17.4 °F 21.0 °F 96% 29.91 in 0.2 mi SSW 3.5 mph - N/A Fog Light Freezing Fog
5:57 AM 21.2 °F 16.4 °F 20.1 °F 96% 29.91 in 0.8 mi SSW 3.5 mph - N/A   Overcast
6:50 AM 23.0 °F - 21.2 °F 93% 29.90 in 3.0 mi Calm Calm - N/A   Overcast
7:54 AM 21.2 °F - 21.2 °F 100% 29.90 in 5.0 mi Calm Calm - N/A   Overcast
8:52 AM 24.8 °F 20.5 °F 23.0 °F 93% 29.90 in 1.5 mi South 3.5 mph - N/A   Overcast
9:52 AM 26.6 °F - 24.8 °F 93% 29.90 in 0.2 mi Calm Calm - N/A Fog Light Freezing Fog
10:58 AM 28.4 °F 24.6 °F 26.6 °F 93% 29.89 in 7.0 mi SSW 3.5 mph - N/A   Overcast
11:55 AM 28.4 °F - 26.6 °F 93% 29.88 in 7.0 mi Calm Calm - N/A   Overcast
12:55 PM 30.2 °F - 28.4 °F 93% 29.87 in 10.0 mi Calm Calm - N/A   Mostly Cloudy
1:50 PM 30.2 °F 26.7 °F 26.6 °F 86% 29.86 in 10.0 mi South 3.5 mph - N/A   Overcast
2:50 PM 32.0 °F - 24.8 °F 75% 29.84 in 10.0 mi Calm Calm - N/A   Overcast
3:50 PM 32.0 °F 26.4 °F 24.8 °F 75% 29.84 in 10.0 mi SSE 5.8 mph - N/A   Overcast
4:55 PM 32.0 °F 27.5 °F 24.8 °F 75% 29.85 in 10.0 mi ESE 4.6 mph - N/A   Overcast
5:55 PM 32.0 °F 26.4 °F 24.8 °F 75% 29.85 in 10.0 mi East 5.8 mph - N/A   Overcast
6:55 PM 30.2 °F 25.4 °F 24.8 °F 80% 29.86 in 10.0 mi SE 4.6 mph - N/A   Overcast
8:50 PM 28.4 °F 23.3 °F 23.0 °F 80% 29.87 in 10.0 mi SE 4.6 mph - N/A   Overcast
9:55 PM 28.4 °F 22.2 °F 23.0 °F 80% 29.87 in 10.0 mi SE 5.8 mph - N/A   Overcast
10:16 PM 29.1 °F 24.1 °F 23.0 °F 78% 29.87 in 10.0 mi SE 4.6 mph - N/A   Overcast
10:37 PM 28.9 °F 22.8 °F 23.0 °F 78% 29.88 in 10.0 mi ESE 5.8 mph - N/A   Overcast
10:56 PM 28.8 °F 22.6 °F 23.0 °F 79% 29.88 in 10.0 mi ESE 5.8 mph - N/A   Overcast
11:16 PM 28.4 °F 23.3 °F 23.0 °F 80% 29.88 in 10.0 mi East 4.6 mph - N/A   Overcast
11:36 PM 28.4 °F 19.7 °F 23.0 °F 80% 29.88 in 10.0 mi East 9.2 mph - N/A   Overcast
11:56 PM 28.0 °F 19.3 °F 23.0 °F 81% 29.88 in 10.0 mi East 9.2 mph - N/A   Overcast